| time (UTC) | temp C | wind direction | speed KPH | gust KPH | rain 1hr cm | rain 24hr cm | rain mn cm | humidity % | barometer mb |
| 20260504160147 | 8 | 253 | 12.9 | 12.9 | 0.00 | 0.00 | 0.00 | 52 | 1015.8 |
| 20260504151115 | 8 | 261 | 8.0 | 9.7 | 0.00 | 0.00 | 0.00 | 55 | 1016.1 |
| 20260504150612 | 8 | 262 | 8.0 | 9.7 | 0.00 | 0.00 | 0.00 | 55 | 1016.2 |
| 20260504150109 | 8 | 252 | 8.0 | 9.7 | 0.00 | 0.00 | 0.00 | 56 | 1016.1 |
| 20260504141038 | 7 | 174 | 4.8 | 4.8 | 0.00 | 0.00 | 0.00 | 59 | 1016.2 |
| 20260504140534 | 7 | 196 | 3.2 | 3.2 | 0.00 | 0.00 | 0.00 | 60 | 1016.3 |
| 20260504130459 | 7 | 192 | 3.2 | 3.2 | 0.00 | 0.00 | 0.00 | 60 | 1015.6 |
| 20260504110346 | 7 | 351 | 3.2 | 3.2 | 0.00 | 0.00 | 0.00 | 59 | 1016.1 |
| 20260504100303 | 8 | 6 | 11.3 | 12.9 | 0.00 | 0.00 | 0.00 | 53 | 1015.4 |
| 20260504081656 | 10 | 10 | 17.7 | 20.9 | 0.00 | 0.00 | 0.00 | 40 | 1014.3 |
| 20260504081153 | 10 | 62 | 20.9 | 24.1 | 0.00 | 0.00 | 0.00 | 40 | 1013.9 |
| 20260504080649 | 10 | 20 | 22.5 | 33.8 | 0.00 | 0.00 | 0.00 | 38 | 1013.9 |
| 20260504080145 | 10 | 18 | 20.9 | 25.7 | 0.00 | 0.00 | 0.00 | 37 | 1013.6 |
| 20260504070114 | 10 | 34 | 16.1 | 22.5 | 0.00 | 0.00 | 0.00 | 36 | 1011.6 |
| 20260504050502 | 13 | 45 | 1.6 | 1.6 | 0.00 | 0.00 | 0.00 | 29 | 1008.7 |
| 20260504045959 | 12 | 285 | 1.6 | 4.8 | 0.00 | 0.00 | 0.00 | 31 | 1008.8 |
| 20260504045455 | 14 | 225 | 4.8 | 4.8 | 0.00 | 0.00 | 0.00 | 27 | 1008.4 |
| 20260504044951 | 15 | 249 | 1.6 | 1.6 | 0.00 | 0.00 | 0.00 | 26 | 1008.0 |
| 20260504044449 | 15 | 271 | 3.2 | 3.2 | 0.00 | 0.00 | 0.00 | 25 | 1008.0 |
| 20260504043946 | 16 | 74 | 4.8 | 8.0 | 0.00 | 0.00 | 0.00 | 24 | 1007.6 |
| 20260504043443 | 16 | 229 | 1.6 | 1.6 | 0.00 | 0.00 | 0.00 | 22 | 1007.8 |
| 20260504042940 | 16 | 252 | 3.2 | 3.2 | 0.00 | 0.00 | 0.00 | 24 | 1008.2 |
| 20260504042437 | 16 | 84 | 12.9 | 14.5 | 0.00 | 0.00 | 0.00 | 22 | 1007.8 |
| 20260504041934 | 16 | 80 | 17.7 | 20.9 | 0.00 | 0.00 | 0.00 | 21 | 1007.8 |
| 20260504041430 | 16 | 90 | 16.1 | 20.9 | 0.00 | 0.00 | 0.00 | 22 | 1007.8 |
| 20260504040926 | 16 | 82 | 17.7 | 20.9 | 0.00 | 0.00 | 0.00 | 21 | 1007.7 |
| 20260504040424 | 16 | 88 | 19.3 | 22.5 | 0.00 | 0.00 | 0.00 | 21 | 1007.8 |
| 20260504035919 | 16 | 61 | 19.3 | 22.5 | 0.00 | 0.00 | 0.00 | 20 | 1007.8 |
| 20260504035417 | 16 | 77 | 1.6 | 3.2 | 0.00 | 0.00 | 0.00 | 22 | 1008.0 |
| 20260504034913 | 15 | 88 | 4.8 | 4.8 | 0.00 | 0.00 | 0.00 | 23 | 1007.8 |
| 20260504034411 | 16 | 359 | 4.8 | 4.8 | 0.00 | 0.00 | 0.00 | 21 | 1007.8 |
| 20260504033908 | 18 | 338 | 11.3 | 11.3 | 0.00 | 0.00 | 0.00 | 17 | 1007.6 |
| 20260504033406 | 17 | 330 | 3.2 | 3.2 | 0.00 | 0.00 | 0.00 | 17 | 1007.6 |
| 20260504032903 | 17 | 208 | 0.0 | 0.0 | 0.00 | 0.00 | 0.00 | 17 | 1007.5 |
| 20260504032359 | 18 | 189 | 1.6 | 1.6 | 0.00 | 0.00 | 0.00 | 17 | 1007.2 |
| 20260504031856 | 18 | 161 | 3.2 | 3.2 | 0.00 | 0.00 | 0.00 | 17 | 1007.5 |
| 20260504031353 | 18 | 327 | 0.0 | 0.0 | 0.00 | 0.00 | 0.00 | 16 | 1007.3 |
| 20260504030849 | 18 | 212 | 0.0 | 0.0 | 0.00 | 0.00 | 0.00 | 16 | 1007.5 |
| 20260504030347 | 18 | 220 | 1.6 | 1.6 | 0.00 | 0.00 | 0.00 | 17 | 1007.3 |
| 20260504025843 | 18 | 233 | 0.0 | 0.0 | 0.00 | 0.00 | 0.00 | 17 | 1007.3 |
| 20260504025340 | 18 | 234 | 0.0 | 1.6 | 0.00 | 0.00 | 0.00 | 17 | 1007.2 |
| 20260504024837 | 18 | 244 | 1.6 | 1.6 | 0.00 | 0.00 | 0.00 | 17 | 1007.2 |
| 20260504024333 | 18 | 248 | 1.6 | 1.6 | 0.00 | 0.00 | 0.00 | 16 | 1007.3 |
| 20260504023830 | 18 | 243 | 1.6 | 1.6 | 0.00 | 0.00 | 0.00 | 17 | 1007.3 |
| 20260504023327 | 18 | 238 | 1.6 | 3.2 | 0.00 | 0.00 | 0.00 | 17 | 1007.2 |
| 20260504022822 | 18 | 275 | 0.0 | 0.0 | 0.00 | 0.00 | 0.00 | 17 | 1007.0 |
| 20260504022320 | 18 | 275 | 0.0 | 0.0 | 0.00 | 0.00 | 0.00 | 17 | 1006.9 |
| 20260504021816 | 19 | 237 | 0.0 | 0.0 | 0.00 | 0.00 | 0.00 | 17 | 1007.0 |
| 20260504021314 | 20 | 339 | 0.0 | 0.0 | 0.00 | 0.00 | 0.00 | 18 | 1007.0 |
| 20260504020810 | 20 | 277 | 3.2 | 3.2 | 0.00 | 0.00 | 0.00 | 18 | 1007.2 |
| 20260504020307 | 20 | 266 | 4.8 | 4.8 | 0.00 | 0.00 | 0.00 | 17 | 1007.3 |
| 20260504015803 | 20 | 271 | 4.8 | 4.8 | 0.00 | 0.00 | 0.00 | 17 | 1007.0 |
| 20260504015259 | 20 | 284 | 4.8 | 8.0 | 0.00 | 0.00 | 0.00 | 18 | 1007.2 |
| 20260504014755 | 20 | 268 | 4.8 | 4.8 | 0.00 | 0.00 | 0.00 | 18 | 1006.9 |
| 20260504014252 | 21 | 282 | 8.0 | 9.7 | 0.00 | 0.00 | 0.00 | 16 | 1007.2 |
| 20260504013750 | 21 | 296 | 8.0 | 9.7 | 0.00 | 0.00 | 0.00 | 17 | 1007.4 |
| 20260504013247 | 21 | 303 | 8.0 | 9.7 | 0.00 | 0.00 | 0.00 | 17 | 1007.0 |
| 20260504012743 | 21 | 294 | 9.7 | 11.3 | 0.00 | 0.00 | 0.00 | 16 | 1007.3 |
| 20260504012241 | 21 | 312 | 8.0 | 9.7 | 0.00 | 0.00 | 0.00 | 16 | 1007.3 |
| 20260504011738 | 21 | 302 | 9.7 | 11.3 | 0.00 | 0.00 | 0.00 | 16 | 1007.5 |
| 20260504011235 | 21 | 308 | 16.1 | 17.7 | 0.00 | 0.00 | 0.00 | 14 | 1007.3 |
| 20260504010731 | 22 | 293 | 16.1 | 17.7 | 0.00 | 0.00 | 0.00 | 14 | 1007.2 |
| 20260504010226 | 22 | 301 | 12.9 | 14.5 | 0.00 | 0.00 | 0.00 | 13 | 1007.4 |
| 20260504005724 | 22 | 300 | 12.9 | 16.1 | 0.00 | 0.00 | 0.00 | 12 | 1007.5 |
| 20260504005221 | 22 | 285 | 14.5 | 16.1 | 0.00 | 0.00 | 0.00 | 14 | 1007.6 |
| 20260504004718 | 22 | 314 | 22.5 | 24.1 | 0.00 | 0.00 | 0.00 | 13 | 1007.5 |
| 20260504004215 | 22 | 299 | 11.3 | 12.9 | 0.00 | 0.00 | 0.00 | 13 | 1007.6 |
| 20260504003712 | 22 | 295 | 14.5 | 16.1 | 0.00 | 0.00 | 0.00 | 11 | 1007.9 |
| 20260504003209 | 22 | 295 | 16.1 | 17.7 | 0.00 | 0.00 | 0.00 | 13 | 1007.7 |
| 20260504002705 | 22 | 282 | 14.5 | 17.7 | 0.00 | 0.00 | 0.00 | 15 | 1007.7 |
| 20260504002203 | 22 | 264 | 12.9 | 14.5 | 0.00 | 0.00 | 0.00 | 12 | 1007.9 |
| 20260504001701 | 22 | 289 | 14.5 | 16.1 | 0.00 | 0.00 | 0.00 | 13 | 1007.8 |
| 20260504001156 | 22 | 285 | 19.3 | 22.5 | 0.00 | 0.00 | 0.00 | 13 | 1007.8 |
| 20260504000654 | 23 | 273 | 22.5 | 25.7 | 0.00 | 0.00 | 0.00 | 14 | 1007.8 |
| 20260504000151 | 23 | 331 | 12.9 | 16.1 | 0.00 | 0.00 | 0.00 | 13 | 1007.8 |
| 20260503235649 | 23 | 295 | 11.3 | 12.9 | 0.00 | 0.00 | 0.00 | 14 | 1007.9 |
| 20260503235145 | 22 | 279 | 16.1 | 16.1 | 0.00 | 0.00 | 0.00 | 13 | 1007.8 |
| 20260503234644 | 22 | 272 | 16.1 | 17.7 | 0.00 | 0.00 | 0.00 | 14 | 1008.0 |
| 20260503234141 | 22 | 300 | 29.0 | 32.2 | 0.00 | 0.00 | 0.00 | 12 | 1007.8 |
| 20260503233638 | 23 | 272 | 29.0 | 35.4 | 0.00 | 0.00 | 0.00 | 13 | 1007.7 |
| 20260503233133 | 22 | 323 | 11.3 | 11.3 | 0.00 | 0.00 | 0.00 | 11 | 1007.9 |
| 20260503232631 | 23 | 275 | 24.1 | 25.7 | 0.00 | 0.00 | 0.00 | 13 | 1008.0 |
| 20260503232128 | 22 | 270 | 14.5 | 17.7 | 0.00 | 0.00 | 0.00 | 15 | 1008.0 |
| 20260503231626 | 22 | 299 | 9.7 | 11.3 | 0.00 | 0.00 | 0.00 | 16 | 1008.0 |
| 20260503231122 | 22 | 286 | 4.8 | 4.8 | 0.00 | 0.00 | 0.00 | 12 | 1008.0 |
| 20260503230619 | 23 | 274 | 20.9 | 24.1 | 0.00 | 0.00 | 0.00 | 13 | 1008.2 |
| 20260503230116 | 23 | 280 | 8.0 | 9.7 | 0.00 | 0.00 | 0.00 | 13 | 1008.3 |
| 20260503225614 | 22 | 239 | 3.2 | 3.2 | 0.00 | 0.00 | 0.00 | 11 | 1008.4 |
| 20260503225108 | 22 | 260 | 14.5 | 16.1 | 0.00 | 0.00 | 0.00 | 12 | 1008.4 |
| 20260503224606 | 22 | 276 | 16.1 | 17.7 | 0.00 | 0.00 | 0.00 | 15 | 1008.4 |
| 20260503224103 | 22 | 278 | 20.9 | 24.1 | 0.00 | 0.00 | 0.00 | 15 | 1008.7 |
| 20260503223601 | 22 | 297 | 14.5 | 16.1 | 0.00 | 0.00 | 0.00 | 14 | 1008.5 |
| 20260503223056 | 22 | 292 | 32.2 | 35.4 | 0.00 | 0.00 | 0.00 | 15 | 1008.4 |
| 20260503222555 | 22 | 248 | 12.9 | 14.5 | 0.00 | 0.00 | 0.00 | 16 | 1008.7 |
| 20260503222052 | 22 | 298 | 19.3 | 25.7 | 0.00 | 0.00 | 0.00 | 16 | 1008.7 |
| 20260503221550 | 22 | 269 | 20.9 | 22.5 | 0.00 | 0.00 | 0.00 | 15 | 1008.9 |
| 20260503221047 | 22 | 274 | 24.1 | 25.7 | 0.00 | 0.00 | 0.00 | 15 | 1009.0 |
| 20260503220543 | 22 | 262 | 16.1 | 17.7 | 0.00 | 0.00 | 0.00 | 16 | 1008.8 |
| 20260503220041 | 22 | 268 | 19.3 | 29.0 | 0.00 | 0.00 | 0.00 | 16 | 1009.0 |
| 20260503215538 | 22 | 258 | 24.1 | 27.4 | 0.00 | 0.00 | 0.00 | 15 | 1008.9 |
| 20260503215035 | 22 | 268 | 17.7 | 22.5 | 0.00 | 0.00 | 0.00 | 18 | 1009.3 |
| 20260503214533 | 22 | 260 | 24.1 | 29.0 | 0.00 | 0.00 | 0.00 | 16 | 1008.8 |
| 20260503214029 | 22 | 258 | 14.5 | 16.1 | 0.00 | 0.00 | 0.00 | 17 | 1009.2 |
| 20260503213527 | 22 | 269 | 22.5 | 25.7 | 0.00 | 0.00 | 0.00 | 19 | 1009.2 |
| 20260503213024 | 22 | 281 | 12.9 | 14.5 | 0.00 | 0.00 | 0.00 | 17 | 1009.6 |
| 20260503212521 | 22 | 288 | 14.5 | 16.1 | 0.00 | 0.00 | 0.00 | 20 | 1009.6 |
| 20260503212019 | 21 | 259 | 11.3 | 12.9 | 0.00 | 0.00 | 0.00 | 20 | 1009.6 |
| 20260503211516 | 22 | 260 | 22.5 | 25.7 | 0.00 | 0.00 | 0.00 | 19 | 1009.6 |
| 20260503211011 | 22 | 259 | 17.7 | 20.9 | 0.00 | 0.00 | 0.00 | 19 | 1009.8 |
| 20260503210508 | 22 | 251 | 19.3 | 22.5 | 0.00 | 0.00 | 0.00 | 17 | 1009.6 |
| 20260503210004 | 22 | 274 | 27.4 | 32.2 | 0.00 | 0.00 | 0.00 | 20 | 1010.0 |
| 20260503205500 | 21 | 250 | 17.7 | 20.9 | 0.00 | 0.00 | 0.00 | 20 | 1009.8 |
| 20260503204956 | 21 | 270 | 25.7 | 29.0 | 0.00 | 0.00 | 0.00 | 19 | 1010.2 |
| 20260503204454 | 21 | 263 | 14.5 | 14.5 | 0.00 | 0.00 | 0.00 | 19 | 1010.2 |
| 20260503203950 | 21 | 272 | 22.5 | 25.7 | 0.00 | 0.00 | 0.00 | 19 | 1010.2 |
| 20260503203448 | 21 | 250 | 8.0 | 9.7 | 0.00 | 0.00 | 0.00 | 22 | 1010.4 |
| 20260503202944 | 21 | 197 | 16.1 | 17.7 | 0.00 | 0.00 | 0.00 | 22 | 1010.4 |
| 20260503202443 | 21 | 257 | 9.7 | 11.3 | 0.00 | 0.00 | 0.00 | 23 | 1010.5 |
| 20260503201941 | 22 | 198 | 4.8 | 8.0 | 0.00 | 0.00 | 0.00 | 25 | 1010.5 |
| 20260503201438 | 21 | 251 | 9.7 | 11.3 | 0.00 | 0.00 | 0.00 | 24 | 1010.8 |
| 20260503200935 | 21 | 248 | 12.9 | 16.1 | 0.00 | 0.00 | 0.00 | 26 | 1010.7 |
| 20260503200432 | 21 | 237 | 19.3 | 20.9 | 0.00 | 0.00 | 0.00 | 22 | 1010.9 |
| 20260503195928 | 21 | 201 | 11.3 | 12.9 | 0.00 | 0.00 | 0.00 | 24 | 1010.8 |
| 20260503195426 | 21 | 255 | 17.7 | 20.9 | 0.00 | 0.00 | 0.00 | 23 | 1010.9 |
| 20260503194922 | 21 | 257 | 24.1 | 27.4 | 0.00 | 0.00 | 0.00 | 24 | 1011.0 |
| 20260503194419 | 20 | 253 | 25.7 | 27.4 | 0.00 | 0.00 | 0.00 | 25 | 1011.2 |
| 20260503193914 | 21 | 252 | 14.5 | 16.1 | 0.00 | 0.00 | 0.00 | 25 | 1011.3 |
| 20260503193410 | 21 | 292 | 16.1 | 17.7 | 0.00 | 0.00 | 0.00 | 24 | 1011.2 |
| 20260503192906 | 21 | 297 | 17.7 | 20.9 | 0.00 | 0.00 | 0.00 | 25 | 1011.4 |
| 20260503192402 | 20 | 231 | 9.7 | 11.3 | 0.00 | 0.00 | 0.00 | 23 | 1011.6 |
| 20260503191858 | 20 | 249 | 16.1 | 22.5 | 0.00 | 0.00 | 0.00 | 24 | 1011.6 |
| 20260503191356 | 20 | 260 | 17.7 | 24.1 | 0.00 | 0.00 | 0.00 | 25 | 1011.5 |
| 20260503190852 | 20 | 241 | 14.5 | 17.7 | 0.00 | 0.00 | 0.00 | 25 | 1011.6 |
| 20260503190349 | 20 | 270 | 19.3 | 22.5 | 0.00 | 0.00 | 0.00 | 26 | 1011.9 |
| 20260503185846 | 19 | 245 | 8.0 | 11.3 | 0.00 | 0.00 | 0.00 | 27 | 1011.8 |
| 20260503185342 | 20 | 275 | 11.3 | 16.1 | 0.00 | 0.00 | 0.00 | 27 | 1011.8 |
| 20260503184837 | 20 | 271 | 9.7 | 11.3 | 0.00 | 0.00 | 0.00 | 26 | 1011.9 |
| 20260503184333 | 20 | 241 | 12.9 | 14.5 | 0.00 | 0.00 | 0.00 | 24 | 1012.1 |
| 20260503183829 | 20 | 258 | 17.7 | 20.9 | 0.00 | 0.00 | 0.00 | 24 | 1012.2 |
| 20260503183326 | 20 | 258 | 20.9 | 24.1 | 0.00 | 0.00 | 0.00 | 25 | 1012.5 |
| 20260503182823 | 20 | 212 | 8.0 | 9.7 | 0.00 | 0.00 | 0.00 | 26 | 1012.3 |
| 20260503182323 | 20 | 274 | 22.5 | 27.4 | 0.00 | 0.00 | 0.00 | 25 | 1012.2 |
| 20260503181819 | 20 | 256 | 20.9 | 24.1 | 0.00 | 0.00 | 0.00 | 24 | 1012.3 |
| 20260503181316 | 20 | 254 | 25.7 | 29.0 | 0.00 | 0.00 | 0.00 | 26 | 1012.3 |
| 20260503180813 | 19 | 262 | 22.5 | 27.4 | 0.00 | 0.00 | 0.00 | 24 | 1012.4 |
| 20260503180311 | 19 | 267 | 16.1 | 17.7 | 0.00 | 0.00 | 0.00 | 27 | 1012.3 |
| 20260503175807 | 19 | 279 | 33.8 | 35.4 | 0.00 | 0.00 | 0.00 | 24 | 1012.5 |
| 20260503175305 | 19 | 285 | 19.3 | 24.1 | 0.00 | 0.00 | 0.00 | 25 | 1012.5 |
| 20260503174800 | 19 | 277 | 17.7 | 17.7 | 0.00 | 0.00 | 0.00 | 27 | 1012.5 |
| 20260503174259 | 19 | 251 | 11.3 | 12.9 | 0.00 | 0.00 | 0.00 | 29 | 1012.6 |
| 20260503173754 | 19 | 253 | 6.4 | 8.0 | 0.00 | 0.00 | 0.00 | 29 | 1012.8 |
| 20260503173250 | 18 | 316 | 9.7 | 11.3 | 0.00 | 0.00 | 0.00 | 31 | 1012.6 |
| 20260503172747 | 18 | 211 | 3.2 | 3.2 | 0.00 | 0.00 | 0.00 | 33 | 1012.7 |
| 20260503172244 | 18 | 330 | 6.4 | 8.0 | 0.00 | 0.00 | 0.00 | 31 | 1012.6 |
| 20260503171740 | 18 | 265 | 16.1 | 17.7 | 0.00 | 0.00 | 0.00 | 30 | 1012.7 |
| 20260503171238 | 18 | 271 | 12.9 | 14.5 | 0.00 | 0.00 | 0.00 | 29 | 1012.8 |
| 20260503170735 | 18 | 265 | 3.2 | 3.2 | 0.00 | 0.00 | 0.00 | 31 | 1012.9 |
| 20260503170231 | 18 | 255 | 14.5 | 16.1 | 0.00 | 0.00 | 0.00 | 30 | 1013.3 |